RYR5PH LSZH-EGPH

Flight info

Callsign RYR5PH
Flight time 1h 55m
Altitude 36000
Route VEBIT T10 TORPA DCT REKLA DCT RLP DCT ROTSI DCT KOTUN DCT AMAXA DCT VESAN DCT RATUK DCT SOVAT L613 LEHOC DCT INPIP
Aircraft B738/M-SDE2E3FGHIRWXY/LB1

Departure

Time 2026-05-04 19:18
Airport Zürich Airport (LSZH)

Arrival

Time 2026-05-04 21:13
Airport Edinburgh Airport (EGPH)
Time Latitude Longitude Altitude Speed Heading
2026-05-04 18:42 47.45028 8.55913 1406 ft 0 kts
2026-05-04 19:07 47.45002 8.55909 1403 ft 7 kts
2026-05-04 19:07 47.44974 8.55903 1400 ft 0 kts
2026-05-04 19:07 47.44955 8.55906 1404 ft 5 kts 332°
2026-05-04 19:08 47.44943 8.55925 1404 ft 0 kts 277°
2026-05-04 19:10 47.44943 8.55914 1402 ft 2 kts 277°
2026-05-04 19:10 47.44947 8.55879 1396 ft 5 kts 277°
2026-05-04 19:11 47.44952 8.55813 1400 ft 9 kts 276°
2026-05-04 19:11 47.44959 8.55709 1400 ft 11 kts 282°
2026-05-04 19:11 47.45013 8.55635 1401 ft 12 kts 333°
2026-05-04 19:11 47.45089 8.55583 1403 ft 8 kts 337°
2026-05-04 19:12 47.45145 8.55547 1403 ft 9 kts 336°
2026-05-04 19:12 47.45266 8.55460 1399 ft 10 kts 335°
2026-05-04 19:12 47.45334 8.55414 1398 ft 14 kts 336°
2026-05-04 19:13 47.45437 8.55344 1398 ft 17 kts 335°
2026-05-04 19:13 47.45544 8.55271 1396 ft 17 kts 335°
2026-05-04 19:13 47.45649 8.55208 1403 ft 16 kts 356°
2026-05-04 19:13 47.45684 8.55326 1399 ft 15 kts 110°
2026-05-04 19:14 47.45663 8.55477 1396 ft 15 kts 95°
2026-05-04 19:14 47.45654 8.55625 1396 ft 14 kts 95°
2026-05-04 19:14 47.45646 8.55767 1405 ft 14 kts 95°
2026-05-04 19:14 47.45635 8.55909 1396 ft 15 kts 97°
2026-05-04 19:15 47.45623 8.56073 1396 ft 17 kts 96°
2026-05-04 19:15 47.45609 8.56263 1396 ft 20 kts 96°
2026-05-04 19:15 47.45595 8.56473 1396 ft 22 kts 96°
2026-05-04 19:15 47.45578 8.56700 1396 ft 22 kts 97°
2026-05-04 19:16 47.45562 8.56918 1396 ft 12 kts 95°
2026-05-04 19:16 47.45599 8.57017 1400 ft 12 kts 19°
2026-05-04 19:16 47.45663 8.56992 1399 ft 3 kts 285°
2026-05-04 19:16 47.45664 8.56988 1399 ft 0 kts 279°
2026-05-04 19:17 47.45685 8.56667 1396 ft 78 kts 275°
2026-05-04 19:18 47.45775 8.55436 1435 ft 157 kts 275°
2026-05-04 19:18 47.45913 8.53705 2184 ft 177 kts 276°
2026-05-04 19:18 47.46081 8.51802 3204 ft 191 kts 278°
2026-05-04 19:18 47.46285 8.49882 4377 ft 180 kts 281°
2026-05-04 19:19 47.46616 8.48200 5563 ft 166 kts 291°
2026-05-04 19:19 47.47224 8.46601 5939 ft 201 kts 305°
2026-05-04 19:19 47.48317 8.44824 5339 ft 272 kts 317°
2026-05-04 19:19 47.49666 8.42760 5482 ft 281 kts 297°
2026-05-04 19:20 47.50195 8.39960 6200 ft 289 kts 271°
2026-05-04 19:20 47.50001 8.37043 7295 ft 279 kts 254°
2026-05-04 19:20 47.49364 8.34475 8877 ft 252 kts 241°
2026-05-04 19:20 47.48498 8.32340 10273 ft 236 kts 233°
2026-05-04 19:21 47.47478 8.30405 10989 ft 246 kts 229°
2026-05-04 19:21 47.46296 8.28399 11281 ft 272 kts 228°
2026-05-04 19:21 47.45043 8.26173 11746 ft 288 kts 232°
2026-05-04 19:21 47.43932 8.23730 12839 ft 281 kts 240°
2026-05-04 19:22 47.43164 8.21151 14109 ft 270 kts 251°
2026-05-04 19:22 47.42824 8.18418 14861 ft 278 kts 265°
2026-05-04 19:22 47.42678 8.15463 15062 ft 300 kts 252°
2026-05-04 19:22 47.41604 8.12798 15241 ft 320 kts 223°
2026-05-04 19:23 47.39618 8.11110 15410 ft 345 kts 197°
2026-05-04 19:23 47.37178 8.10624 15779 ft 361 kts 185°
2026-05-04 19:23 47.34671 8.10155 16294 ft 365 kts 199°
2026-05-04 19:23 47.32462 8.08417 16965 ft 359 kts 218°
2026-05-04 19:24 47.30563 8.06024 17782 ft 359 kts 224°
2026-05-04 19:24 47.28819 8.03397 18551 ft 359 kts 233°
2026-05-04 19:24 47.27725 8.00120 19284 ft 359 kts 252°
2026-05-04 19:24 47.27315 7.96621 19993 ft 361 kts 266°
2026-05-04 19:25 47.27511 7.92924 20765 ft 361 kts 274°
2026-05-04 19:25 47.27867 7.89284 21531 ft 360 kts 275°
2026-05-04 19:25 47.28249 7.85613 22339 ft 358 kts 275°
2026-05-04 19:25 47.28614 7.82022 23156 ft 355 kts 275°
2026-05-04 19:26 47.28963 7.78449 23915 ft 351 kts 274°
2026-05-04 19:26 47.29295 7.74949 24618 ft 346 kts 274°
2026-05-04 19:26 47.29619 7.71462 25349 ft 342 kts 273°
2026-05-04 19:26 47.29936 7.68016 26100 ft 336 kts 273°
2026-05-04 19:27 47.30247 7.64620 26859 ft 331 kts 273°
2026-05-04 19:27 47.30699 7.61321 27627 ft 328 kts 281°
2026-05-04 19:27 47.31383 7.58148 28365 ft 324 kts 282°
2026-05-04 19:27 47.32088 7.54997 28996 ft 321 kts 282°
2026-05-04 19:28 47.32787 7.51878 29632 ft 316 kts 282°
2026-05-04 19:28 47.33462 7.48844 30241 ft 312 kts 281°
2026-05-04 19:28 47.34132 7.45797 30621 ft 312 kts 281°
2026-05-04 19:28 47.34794 7.42765 31009 ft 311 kts 281°
2026-05-04 19:29 47.35458 7.39703 31305 ft 315 kts 281°
2026-05-04 19:29 47.36127 7.36617 31602 ft 318 kts 281°
2026-05-04 19:29 47.36807 7.33467 31773 ft 325 kts 281°
2026-05-04 19:29 47.37493 7.30284 31882 ft 335 kts 281°
2026-05-04 19:30 47.38210 7.26955 31989 ft 345 kts 281°
2026-05-04 19:30 47.39705 7.20015 32173 ft 364 kts 282°
2026-05-04 19:31 47.41174 7.12689 32335 ft 380 kts 278°
2026-05-04 19:31 47.42307 7.04902 32528 ft 396 kts 276°
2026-05-04 19:32 47.43428 6.96884 32671 ft 412 kts 277°
2026-05-04 19:32 47.44632 6.88508 32806 ft 427 kts 277°
2026-05-04 19:33 47.45898 6.79792 32961 ft 439 kts 277°
2026-05-04 19:33 47.46540 6.75360 33174 ft 442 kts 277°
2026-05-04 19:33 47.47181 6.70925 33543 ft 440 kts 277°
2026-05-04 19:33 47.47812 6.66521 34054 ft 436 kts 277°
2026-05-04 19:34 47.48294 6.62134 34431 ft 430 kts 273°
2026-05-04 19:34 47.48630 6.57742 34673 ft 430 kts 271°
2026-05-04 19:34 47.48930 6.53330 34876 ft 432 kts 274°
2026-05-04 19:34 47.49594 6.48958 34994 ft 442 kts 284°
2026-05-04 19:35 47.50802 6.44738 34997 ft 449 kts 293°
2026-05-04 19:35 47.54318 6.37016 35000 ft 451 kts 302°
2026-05-04 19:36 47.58054 6.29625 34999 ft 447 kts 302°
2026-05-04 19:36 47.61760 6.22210 35007 ft 447 kts 301°
2026-05-04 19:37 47.65406 6.14810 35003 ft 448 kts 301°
2026-05-04 19:37 47.69074 6.07325 35003 ft 449 kts 302°
2026-05-04 19:38 47.73455 6.00575 34998 ft 457 kts 312°
2026-05-04 19:38 47.78095 5.94261 34996 ft 459 kts 313°
2026-05-04 19:39 47.82800 5.87809 35000 ft 461 kts 313°
2026-05-04 19:39 47.87486 5.81268 35004 ft 462 kts 312°
2026-05-04 19:40 47.92164 5.74678 34992 ft 464 kts 312°
2026-05-04 19:40 47.96850 5.68050 34987 ft 464 kts 312°
2026-05-04 19:41 48.01528 5.61417 34986 ft 464 kts 312°
2026-05-04 19:41 48.06208 5.54768 34982 ft 464 kts 312°
2026-05-04 19:42 48.10879 5.48114 34993 ft 463 kts 312°
2026-05-04 19:42 48.15512 5.41496 34974 ft 463 kts 312°
2026-05-04 19:43 48.20157 5.34844 34970 ft 462 kts 312°
2026-05-04 19:43 48.24792 5.28188 34971 ft 461 kts 312°
2026-05-04 19:44 48.29415 5.21533 34971 ft 460 kts 312°
2026-05-04 19:44 48.34025 5.14877 34992 ft 459 kts 312°
2026-05-04 19:45 48.38636 5.08203 34973 ft 459 kts 312°
2026-05-04 19:45 48.43237 5.01525 34965 ft 459 kts 312°
2026-05-04 19:46 48.47769 4.94932 34954 ft 459 kts 312°
2026-05-04 19:46 48.52355 4.88241 34957 ft 459 kts 311°
2026-05-04 19:47 48.56943 4.81530 34958 ft 459 kts 311°
2026-05-04 19:47 48.61519 4.74818 34972 ft 459 kts 311°
2026-05-04 19:48 48.66096 4.68087 34952 ft 459 kts 311°
2026-05-04 19:48 48.70667 4.61349 34955 ft 458 kts 311°
2026-05-04 19:49 48.75224 4.54611 34957 ft 457 kts 311°
2026-05-04 19:49 48.79746 4.47908 34959 ft 457 kts 311°
2026-05-04 19:50 48.84284 4.41161 34959 ft 456 kts 311°
2026-05-04 19:50 48.88808 4.34419 34974 ft 456 kts 311°
2026-05-04 19:51 48.93327 4.27666 34959 ft 456 kts 311°
2026-05-04 19:51 48.97842 4.20901 34960 ft 455 kts 311°
2026-05-04 19:52 49.02344 4.14138 34968 ft 455 kts 310°
2026-05-04 19:52 49.04592 4.10755 35097 ft 453 kts 310°
2026-05-04 19:52 49.06076 4.08517 35198 ft 454 kts 311°
2026-05-04 19:52 49.09082 4.03980 35446 ft 454 kts 311°
2026-05-04 19:53 49.10576 4.01723 35616 ft 454 kts 311°
2026-05-04 19:53 49.12746 3.98440 35856 ft 454 kts 311°
2026-05-04 19:53 49.14992 3.95036 35937 ft 458 kts 311°
2026-05-04 19:54 49.19539 3.88130 35935 ft 461 kts 311°
2026-05-04 19:54 49.24065 3.81246 35938 ft 455 kts 311°
2026-05-04 19:55 49.28546 3.74411 35956 ft 454 kts 311°
2026-05-04 19:55 49.32988 3.67610 35956 ft 454 kts 311°
2026-05-04 19:56 49.37450 3.60761 35947 ft 454 kts 311°
2026-05-04 19:56 49.41907 3.53903 35970 ft 454 kts 310°
2026-05-04 19:57 49.46369 3.47018 35947 ft 454 kts 310°
2026-05-04 19:57 49.50821 3.40129 35950 ft 454 kts 310°
2026-05-04 19:58 49.55275 3.33220 35950 ft 454 kts 310°
2026-05-04 19:58 49.59721 3.26302 35955 ft 454 kts 310°
2026-05-04 19:59 49.64130 3.19424 35955 ft 454 kts 310°
2026-05-04 19:59 49.68564 3.12489 35967 ft 454 kts 311°
2026-05-04 20:00 49.72988 3.05548 35960 ft 454 kts 311°
2026-05-04 20:00 49.77359 2.98674 35958 ft 454 kts 311°
2026-05-04 20:01 49.81780 2.91701 35958 ft 453 kts 311°
2026-05-04 20:01 49.86193 2.84721 35958 ft 453 kts 311°
2026-05-04 20:02 49.90604 2.77724 35963 ft 453 kts 311°
2026-05-04 20:02 49.95012 2.70713 35983 ft 454 kts 311°
2026-05-04 20:03 49.99421 2.63681 35971 ft 454 kts 311°
2026-05-04 20:03 50.03795 2.56685 35966 ft 454 kts 311°
2026-05-04 20:04 50.08197 2.49625 35969 ft 454 kts 311°
2026-05-04 20:04 50.12598 2.42547 35976 ft 454 kts 311°
2026-05-04 20:05 50.16993 2.35458 35980 ft 455 kts 311°
2026-05-04 20:05 50.21388 2.28348 35990 ft 455 kts 311°
2026-05-04 20:06 50.25783 2.21219 35984 ft 456 kts 311°
2026-05-04 20:06 50.30182 2.14063 35989 ft 456 kts 311°
2026-05-04 20:07 50.34548 2.06940 35992 ft 456 kts 311°
2026-05-04 20:07 50.38996 1.99917 35987 ft 458 kts 315°
2026-05-04 20:08 50.43789 1.93430 36000 ft 459 kts 317°
2026-05-04 20:08 50.48670 1.86948 35993 ft 459 kts 317°
2026-05-04 20:09 50.53508 1.80379 35995 ft 460 kts 316°
2026-05-04 20:09 50.58330 1.73757 36002 ft 460 kts 316°
2026-05-04 20:10 50.63157 1.67111 36004 ft 461 kts 316°
2026-05-04 20:10 50.67979 1.60458 36007 ft 460 kts 316°
2026-05-04 20:11 50.72768 1.53827 35995 ft 460 kts 316°
2026-05-04 20:11 50.77574 1.47158 36002 ft 459 kts 316°
2026-05-04 20:12 50.82370 1.40490 36019 ft 459 kts 316°
2026-05-04 20:12 50.87165 1.33809 36013 ft 459 kts 316°
2026-05-04 20:13 50.91953 1.27116 36026 ft 458 kts 316°
2026-05-04 20:13 50.96731 1.20417 36022 ft 458 kts 316°
2026-05-04 20:14 51.01494 1.13722 36016 ft 457 kts 316°
2026-05-04 20:14 51.06258 1.07020 36014 ft 457 kts 317°
2026-05-04 20:15 51.11378 1.00992 36025 ft 458 kts 323°
2026-05-04 20:15 51.16590 0.95384 36017 ft 459 kts 324°
2026-05-04 20:16 51.21865 0.89655 36023 ft 459 kts 323°
2026-05-04 20:16 51.27123 0.83837 36028 ft 460 kts 323°
2026-05-04 20:17 51.32332 0.78021 36026 ft 460 kts 323°
2026-05-04 20:17 51.37576 0.72143 36040 ft 460 kts 323°
2026-05-04 20:18 51.42817 0.66255 36023 ft 460 kts 323°
2026-05-04 20:18 51.48057 0.60354 36022 ft 460 kts 323°
2026-05-04 20:19 51.53284 0.54451 36021 ft 459 kts 323°
2026-05-04 20:19 51.58513 0.48528 36023 ft 459 kts 323°
2026-05-04 20:20 51.63725 0.42608 36023 ft 459 kts 323°
2026-05-04 20:20 51.68917 0.36693 36044 ft 459 kts 323°
2026-05-04 20:21 51.74119 0.30750 36049 ft 458 kts 323°
2026-05-04 20:21 51.81927 0.21796 36053 ft 458 kts 323°
2026-05-04 20:22 51.87117 0.15825 36050 ft 458 kts 322°
2026-05-04 20:22 51.92309 0.09832 36048 ft 458 kts 322°
2026-05-04 20:23 51.97490 0.03835 36048 ft 457 kts 322°
2026-05-04 20:23 52.02579 -0.02049 36049 ft 458 kts 324°
2026-05-04 20:24 52.08091 -0.07161 36049 ft 459 kts 331°
2026-05-04 20:24 52.13781 -0.11959 36050 ft 460 kts 331°
2026-05-04 20:25 52.19436 -0.16852 36049 ft 461 kts 330°
2026-05-04 20:25 52.25083 -0.21836 36049 ft 461 kts 330°
2026-05-04 20:26 52.30725 -0.26831 36060 ft 461 kts 330°
2026-05-04 20:26 52.36354 -0.31820 36044 ft 460 kts 330°
2026-05-04 20:27 52.41977 -0.36817 36046 ft 458 kts 330°
2026-05-04 20:27 52.47530 -0.41767 36047 ft 457 kts 330°
2026-05-04 20:28 52.53145 -0.46787 36050 ft 455 kts 330°
2026-05-04 20:28 52.58662 -0.51736 36049 ft 454 kts 330°
2026-05-04 20:29 52.64197 -0.56714 36047 ft 453 kts 330°
2026-05-04 20:29 52.69715 -0.61691 36049 ft 452 kts 330°
2026-05-04 20:30 52.75223 -0.66674 36049 ft 451 kts 330°
2026-05-04 20:30 52.80725 -0.71667 36050 ft 451 kts 331°
2026-05-04 20:31 52.86223 -0.76670 36049 ft 451 kts 330°
2026-05-04 20:31 52.91722 -0.81689 36050 ft 451 kts 330°
2026-05-04 20:32 52.97226 -0.86726 36050 ft 452 kts 330°
2026-05-04 20:32 53.02701 -0.91750 36050 ft 453 kts 331°
2026-05-04 20:33 53.08221 -0.96821 36048 ft 453 kts 331°
2026-05-04 20:33 53.13659 -1.01830 36046 ft 454 kts 331°
2026-05-04 20:34 53.19187 -1.06939 36048 ft 454 kts 332°
2026-05-04 20:34 53.24724 -1.12071 36044 ft 455 kts 331°
2026-05-04 20:35 53.30191 -1.17154 36049 ft 454 kts 332°
2026-05-04 20:35 53.35766 -1.22354 36044 ft 453 kts 331°
2026-05-04 20:36 53.41236 -1.27468 36043 ft 452 kts 331°
2026-05-04 20:36 53.46723 -1.32630 36043 ft 452 kts 331°
2026-05-04 20:37 53.52198 -1.37810 36043 ft 451 kts 331°
2026-05-04 20:37 53.57660 -1.42991 36043 ft 450 kts 331°
2026-05-04 20:38 53.63110 -1.48174 36045 ft 450 kts 331°
2026-05-04 20:38 53.68561 -1.53373 36047 ft 449 kts 331°
2026-05-04 20:39 53.73071 -1.57753 36044 ft 450 kts 328°
2026-05-04 20:39 53.77866 -1.64513 36049 ft 449 kts 317°
2026-05-04 20:40 53.82441 -1.71714 36052 ft 449 kts 318°
2026-05-04 20:40 53.87784 -1.80028 36047 ft 448 kts 318°
2026-05-04 20:41 53.91649 -1.85997 36046 ft 448 kts 318°
2026-05-04 20:41 53.96254 -1.93122 36041 ft 449 kts 318°
2026-05-04 20:42 53.98536 -1.96662 35864 ft 451 kts 318°
2026-05-04 20:42 54.00800 -2.00173 35585 ft 450 kts 319°
2026-05-04 20:42 54.03247 -2.03418 35336 ft 449 kts 328°
2026-05-04 20:42 54.05926 -2.06157 35111 ft 449 kts 330°
2026-05-04 20:43 54.08634 -2.08819 34830 ft 450 kts 330°
2026-05-04 20:43 54.11355 -2.11475 34541 ft 451 kts 330°
2026-05-04 20:43 54.14071 -2.14141 34348 ft 448 kts 330°
2026-05-04 20:43 54.16756 -2.16801 34034 ft 445 kts 330°
2026-05-04 20:44 54.19430 -2.19471 33717 ft 445 kts 330°
2026-05-04 20:44 54.22102 -2.22156 33384 ft 446 kts 330°
2026-05-04 20:44 54.24775 -2.24851 33072 ft 446 kts 329°
2026-05-04 20:44 54.27443 -2.27550 32753 ft 445 kts 329°
2026-05-04 20:45 54.30110 -2.30252 32429 ft 444 kts 329°
2026-05-04 20:45 54.32765 -2.32946 32125 ft 444 kts 329°
2026-05-04 20:45 54.35421 -2.35645 31811 ft 444 kts 329°
2026-05-04 20:45 54.38076 -2.38347 31506 ft 444 kts 329°
2026-05-04 20:46 54.40740 -2.41061 31211 ft 445 kts 329°
2026-05-04 20:46 54.43403 -2.43779 30909 ft 446 kts 329°
2026-05-04 20:46 54.46048 -2.46481 30619 ft 448 kts 329°
2026-05-04 20:46 54.48729 -2.49225 30334 ft 449 kts 328°
2026-05-04 20:47 54.51418 -2.51981 30037 ft 450 kts 328°
2026-05-04 20:47 54.54111 -2.54746 29698 ft 451 kts 328°
2026-05-04 20:47 54.56802 -2.57513 29356 ft 451 kts 328°
2026-05-04 20:47 54.59508 -2.60301 29023 ft 452 kts 328°
2026-05-04 20:48 54.62210 -2.63088 28681 ft 452 kts 328°
2026-05-04 20:48 54.64909 -2.65876 28363 ft 453 kts 328°
2026-05-04 20:48 54.67614 -2.68674 28042 ft 454 kts 328°
2026-05-04 20:48 54.70331 -2.71490 27719 ft 454 kts 328°
2026-05-04 20:49 54.73043 -2.74305 27412 ft 455 kts 327°
2026-05-04 20:49 54.75756 -2.77126 27103 ft 455 kts 327°
2026-05-04 20:49 54.78470 -2.79952 26791 ft 456 kts 327°
2026-05-04 20:49 54.81190 -2.82789 26539 ft 455 kts 327°
2026-05-04 20:50 54.83837 -2.85553 26334 ft 441 kts 327°
2026-05-04 20:50 54.86421 -2.88252 26112 ft 425 kts 327°
2026-05-04 20:50 54.88942 -2.90759 25772 ft 414 kts 331°
2026-05-04 20:50 54.91572 -2.92816 25178 ft 413 kts 336°
2026-05-04 20:51 54.94227 -2.94639 24604 ft 409 kts 337°
2026-05-04 20:51 54.96879 -2.96422 24043 ft 406 kts 336°
2026-05-04 20:51 54.99498 -2.98221 23441 ft 403 kts 335°
2026-05-04 20:51 55.02060 -3.00033 22815 ft 400 kts 335°
2026-05-04 20:52 55.04567 -3.01841 22250 ft 395 kts 334°
2026-05-04 20:52 55.07094 -3.03683 21699 ft 391 kts 334°
2026-05-04 20:52 55.09589 -3.05510 21155 ft 387 kts 334°
2026-05-04 20:52 55.12050 -3.07313 20847 ft 378 kts 334°
2026-05-04 20:53 55.14430 -3.09055 20763 ft 363 kts 334°
2026-05-04 20:53 55.16708 -3.10723 20745 ft 347 kts 334°
2026-05-04 20:53 55.18862 -3.12301 20727 ft 331 kts 334°
2026-05-04 20:53 55.20918 -3.13809 20736 ft 313 kts 334°
2026-05-04 20:54 55.22944 -3.15300 20240 ft 316 kts 333°
2026-05-04 20:54 55.25034 -3.16847 19241 ft 336 kts 334°
2026-05-04 20:54 55.27202 -3.18447 18575 ft 337 kts 334°
2026-05-04 20:54 55.29350 -3.19917 18202 ft 327 kts 342°
2026-05-04 20:55 55.31589 -3.20280 17790 ft 322 kts 359°
2026-05-04 20:55 55.33811 -3.19978 17215 ft 319 kts
2026-05-04 20:55 55.35994 -3.19605 16589 ft 319 kts
2026-05-04 20:55 55.38190 -3.19220 16004 ft 316 kts
2026-05-04 20:56 55.40368 -3.18845 15443 ft 313 kts
2026-05-04 20:56 55.42539 -3.18482 14895 ft 311 kts
2026-05-04 20:56 55.44680 -3.18133 14349 ft 308 kts
2026-05-04 20:56 55.46812 -3.17791 13811 ft 306 kts
2026-05-04 20:57 55.48925 -3.17456 13270 ft 304 kts
2026-05-04 20:57 55.51013 -3.17125 12785 ft 298 kts
2026-05-04 20:57 55.53068 -3.16800 12234 ft 296 kts
2026-05-04 20:57 55.55108 -3.16479 11677 ft 294 kts
2026-05-04 20:58 55.57133 -3.16160 11234 ft 288 kts
2026-05-04 20:58 55.59069 -3.15853 11297 ft 270 kts 360°
2026-05-04 20:58 55.60960 -3.15867 11371 ft 279 kts 359°
2026-05-04 20:58 55.62929 -3.15461 11360 ft 290 kts 10°
2026-05-04 20:59 55.64740 -3.13917 11351 ft 298 kts 36°
2026-05-04 20:59 55.66051 -3.11055 11355 ft 304 kts 62°
2026-05-04 20:59 55.66570 -3.07428 11357 ft 307 kts 89°
2026-05-04 20:59 55.66188 -3.03725 11354 ft 307 kts 115°
2026-05-04 21:00 55.64983 -3.00662 11353 ft 303 kts 141°
2026-05-04 21:00 55.63197 -2.98815 11353 ft 296 kts 167°
2026-05-04 21:00 55.61186 -2.98519 11363 ft 287 kts 193°
2026-05-04 21:00 55.59372 -2.99778 11371 ft 279 kts 219°
2026-05-04 21:01 55.58105 -3.02288 11356 ft 273 kts 245°
2026-05-04 21:01 55.57650 -3.05499 11358 ft 270 kts 271°
2026-05-04 21:01 55.58106 -3.08693 11351 ft 272 kts 300°
2026-05-04 21:01 55.59358 -3.11151 11275 ft 268 kts 317°
2026-05-04 21:02 55.60977 -3.12695 11006 ft 277 kts 344°
2026-05-04 21:02 55.62937 -3.12918 10795 ft 288 kts 360°
2026-05-04 21:02 55.64949 -3.12615 10552 ft 292 kts
2026-05-04 21:02 55.66956 -3.12226 10298 ft 287 kts
2026-05-04 21:03 55.68913 -3.11834 9964 ft 278 kts
2026-05-04 21:03 55.70813 -3.11464 9618 ft 270 kts
2026-05-04 21:03 55.72670 -3.11115 9283 ft 267 kts
2026-05-04 21:03 55.74519 -3.10777 8963 ft 267 kts
2026-05-04 21:04 55.76376 -3.10444 8638 ft 269 kts
2026-05-04 21:04 55.78237 -3.10113 8301 ft 268 kts
2026-05-04 21:04 55.80081 -3.09787 7976 ft 265 kts
2026-05-04 21:04 55.81873 -3.09469 7790 ft 249 kts
2026-05-04 21:05 55.83526 -3.09174 7651 ft 229 kts
2026-05-04 21:05 55.85060 -3.08902 7511 ft 212 kts
2026-05-04 21:05 55.86479 -3.08651 7330 ft 200 kts
2026-05-04 21:05 55.87853 -3.08412 6994 ft 196 kts
2026-05-04 21:06 55.89201 -3.08178 6661 ft 193 kts
2026-05-04 21:06 55.90528 -3.07947 6307 ft 191 kts
2026-05-04 21:06 55.91851 -3.07718 5889 ft 191 kts
2026-05-04 21:06 55.93144 -3.07491 5599 ft 186 kts
2026-05-04 21:07 55.94432 -3.07265 5368 ft 185 kts
2026-05-04 21:07 55.95717 -3.07040 5140 ft 186 kts
2026-05-04 21:07 55.97011 -3.06813 4909 ft 187 kts
2026-05-04 21:07 55.98313 -3.06585 4668 ft 188 kts
2026-05-04 21:08 55.99617 -3.06355 4433 ft 189 kts
2026-05-04 21:08 56.00921 -3.06125 4196 ft 189 kts
2026-05-04 21:08 56.02232 -3.05894 3950 ft 189 kts
2026-05-04 21:08 56.03497 -3.06124 3671 ft 182 kts 328°
2026-05-04 21:09 56.04239 -3.07817 3519 ft 177 kts 284°
2026-05-04 21:09 56.04135 -3.10004 3314 ft 183 kts 247°
2026-05-04 21:09 56.03510 -3.12014 3151 ft 183 kts 244°
2026-05-04 21:09 56.02898 -3.13992 3005 ft 183 kts 243°
2026-05-04 21:10 56.02253 -3.15931 2783 ft 179 kts 242°
2026-05-04 21:10 56.01618 -3.17798 2532 ft 171 kts 242°
2026-05-04 21:10 56.01014 -3.19564 2297 ft 162 kts 243°
2026-05-04 21:10 56.00454 -3.21206 2092 ft 152 kts 243°
2026-05-04 21:11 55.99918 -3.22779 1883 ft 145 kts 244°
2026-05-04 21:11 55.99407 -3.24277 1688 ft 137 kts 244°
2026-05-04 21:11 55.98919 -3.25714 1515 ft 135 kts 244°
2026-05-04 21:11 55.98436 -3.27133 1330 ft 133 kts 243°
2026-05-04 21:12 55.97956 -3.28547 1144 ft 134 kts 242°
2026-05-04 21:12 55.97470 -3.29970 930 ft 135 kts 242°
2026-05-04 21:12 55.96962 -3.31398 655 ft 136 kts 241°
2026-05-04 21:12 55.96472 -3.32841 486 ft 140 kts 241°
2026-05-04 21:13 55.95973 -3.34328 310 ft 139 kts 242°
2026-05-04 21:13 55.95506 -3.35756 120 ft 127 kts 240°
2026-05-04 21:13 55.95170 -3.36754 108 ft 56 kts 238°
2026-05-04 21:13 55.95006 -3.37232 106 ft 44 kts 238°
2026-05-04 21:14 55.94853 -3.37679 112 ft 40 kts 238°
2026-05-04 21:14 55.94725 -3.38023 113 ft 16 kts 218°
2026-05-04 21:14 55.94626 -3.37983 111 ft 16 kts 144°
2026-05-04 21:14 55.94597 -3.37872 111 ft 3 kts 67°
2026-05-04 21:15 55.94630 -3.37776 113 ft 17 kts 59°
2026-05-04 21:15 55.94697 -3.37574 110 ft 20 kts 59°
2026-05-04 21:15 55.94770 -3.37353 107 ft 21 kts 59°
2026-05-04 21:15 55.94846 -3.37124 104 ft 21 kts 59°
2026-05-04 21:16 55.94924 -3.36900 103 ft 21 kts 58°
2026-05-04 21:16 55.94937 -3.36824 105 ft 3 kts 157°
2026-05-04 21:16 55.94905 -3.36801 105 ft 7 kts 159°
2026-05-04 21:16 55.94825 -3.36776 104 ft 13 kts 178°
2026-05-04 21:17 55.94767 -3.36752 104 ft 7 kts 154°
2026-05-04 21:17 55.94751 -3.36678 104 ft 7 kts 89°
2026-05-04 21:17 55.94752 -3.36626 105 ft 1 kts 86°
2026-05-04 21:17 55.94752 -3.36610 105 ft 0 kts 89°